Istanbul, Turkey

10:45 PM +03 on February 20, 2018 (GMT +0300)
Ataturk

Weather History for LTBA - August, 2013

Change the Weather History Date:

Saturday, August 3, 2013

  Actual Average Record
Temperature  
Mean Temperature 80 °F -  
Max Temperature 90 °F 81 °F 93 °F (1998)
Min Temperature 70 °F 68 °F 62 °F (1997)
Cooling Degree Days 15    
Growing Degree Days 30 (Base 50)    
Moisture  
Dew Point 58 °F    
Average Humidity 49    
Maximum Humidity 88    
Minimum Humidity 19    
Precipitation  
Precipitation 0.00 in - - ()
Sea Level Pressure  
Sea Level Pressure 29.99 in    
Wind  
Wind Speed 7 mph ()    
Max Wind Speed 17 mph    
Max Gust Speed 23 mph    
Visibility 6.7 miles    
Events      
Averages and records for this station are not official NWS values.
T = Trace of Precipitation, MM = Missing Value Source: Averaged Metar Reports

Daily Weather History Graph

Daily Weather History Graph

Search for Another Location

Airport or City:

Trip Planner

Search our weather history database for the weather conditions in past years. The results will help you decide how hot, cold, wet, or windy it might be!

Date:

Astronomy

Aug. 03, 2013 Rise Set
Actual Time 6:02 AM EEST 8:18 PM EEST
Civil Twilight 5:31 AM EEST 8:49 PM EEST
Nautical Twilight 4:54 AM EEST 9:26 PM EEST
Astronomical Twilight 4:12 AM EEST 10:08 PM EEST
Moon 2:55 AM EEST (8/3) 5:47 PM EEST (8/3)
Length of Visible Light 15h 17m
Length of Day
14h 15m
Waning Crescent, 11% of the Moon is Illuminated
Aug 3
Waning Crescent
Aug 7
New
Aug 14
First Quarter
Aug 21
Full
Aug 28
Last Quarter

Hourly Weather History & Observations

Time (EEST) Temp. Heat Index Dew Point Humidity Pressure Visibility Wind Dir Wind Speed Gust Speed Precip Events Conditions
12:20 AM 77.0 °F - 66.2 °F 69% 30.01 in - NE 6.9 mph - N/A   Clear
12:50 AM 75.2 °F - 66.2 °F 73% 30.01 in - NE 6.9 mph - N/A   Clear
1:20 AM 77.0 °F - 66.2 °F 69% 29.98 in - Variable 6.9 mph - N/A   Clear
1:50 AM 77.0 °F - 66.2 °F 69% 30.01 in - ENE 6.9 mph - N/A   Clear
2:20 AM 75.2 °F - 66.2 °F 73% 29.98 in - NE 5.8 mph - N/A   Clear
2:50 AM 75.2 °F - 66.2 °F 73% 29.98 in - NE 5.8 mph - N/A   Clear
3:00 AM 75 °F - 66 °F 66% 29.99 in 6 mi NE 5.8 mph - -  
3:20 AM 75.2 °F - 66.2 °F 73% 29.98 in - NE 5.8 mph - N/A   Clear
3:50 AM 73.4 °F - 66.2 °F 78% 29.98 in - NNE 5.8 mph - N/A   Clear
4:20 AM 71.6 °F - 66.2 °F 83% 29.98 in - North 4.6 mph - N/A   Clear
4:50 AM 71.6 °F - 66.2 °F 83% 29.98 in - North 5.8 mph - N/A   Clear
5:20 AM 71.6 °F - 68.0 °F 88% 29.98 in - North 5.8 mph - N/A   Clear
5:50 AM 69.8 °F - 66.2 °F 88% 29.98 in - North 3.5 mph - N/A   Clear
6:20 AM 73.4 °F - 68.0 °F 83% 29.98 in - NNE 5.8 mph - N/A   Clear
6:50 AM 73.4 °F - 66.2 °F 78% 29.98 in - NE 4.6 mph - N/A   Clear
7:20 AM 77.0 °F - 66.2 °F 69% 29.98 in - Variable 4.6 mph - N/A   Clear
7:50 AM 77.0 °F - 66.2 °F 69% 29.98 in - ENE 6.9 mph - N/A   Clear
8:20 AM 77.0 °F - 66.2 °F 69% 29.98 in 6.2 mi ENE 6.9 mph - N/A   Partly Cloudy
8:50 AM 78.8 °F - 64.4 °F 61% 30.01 in 6.2 mi Variable 8.1 mph - N/A   Partly Cloudy
9:00 AM 80 °F - 65 °F 50% 30.00 in 7 mi ENE 8.1 mph - -   Scattered Clouds
9:20 AM 80.6 °F 81.1 °F 59.0 °F 48% 30.01 in 6.2 mi East 9.2 mph - N/A   Partly Cloudy
9:50 AM 80.6 °F 81.5 °F 60.8 °F 51% 30.01 in 6.2 mi East 9.2 mph - N/A   Partly Cloudy
10:20 AM 80.6 °F 81.1 °F 59.0 °F 48% 30.01 in 6.2 mi NE 9.2 mph - N/A   Partly Cloudy
10:50 AM 84.2 °F 83.5 °F 57.2 °F 40% 30.01 in 6.2 mi NE 8.1 mph - N/A   Partly Cloudy
11:20 AM 84.2 °F 83.0 °F 55.4 °F 37% 30.01 in 6.2 mi NE 10.4 mph - N/A   Partly Cloudy
11:50 AM 86.0 °F 84.2 °F 53.6 °F 33% 30.01 in 6.2 mi NNE 12.7 mph - N/A   Partly Cloudy
12:20 PM 87.8 °F - 51.8 °F 29% 30.01 in - NE 13.8 mph - N/A   Clear
12:50 PM 86.0 °F - 50.0 °F 29% 29.98 in - NE 15.0 mph - N/A   Clear
1:20 PM 87.8 °F - 48.2 °F 25% 29.98 in - NNE 17.3 mph - N/A   Clear
1:50 PM 87.8 °F - 51.8 °F 29% 29.98 in - NE 15.0 mph - N/A   Clear
2:20 PM 87.8 °F - 50.0 °F 27% 29.98 in - NNE 15.0 mph - N/A   Clear
2:50 PM 87.8 °F - 51.8 °F 29% 29.98 in - Variable 11.5 mph 23.0 mph N/A   Clear
3:00 PM 88 °F - 51 °F 19% 29.98 in 12 mi NNE 11.5 mph - -  
3:20 PM 87.8 °F - 50.0 °F 27% 29.98 in - NNE 15.0 mph - N/A   Clear
3:50 PM 87.8 °F - 50.0 °F 27% 29.98 in - NNE 15.0 mph - N/A   Clear
4:20 PM 87.8 °F - 50.0 °F 27% 29.98 in - NE 15.0 mph - N/A   Clear
4:50 PM 86.0 °F - 50.0 °F 29% 29.98 in - NE 12.7 mph - N/A   Clear
5:20 PM 86.0 °F 84.2 °F 53.6 °F 33% 29.98 in - NE 11.5 mph - N/A   Clear
5:50 PM 84.2 °F 82.8 °F 53.6 °F 35% 29.98 in - NNE 11.5 mph - N/A   Clear
6:20 PM 84.2 °F 83.0 °F 55.4 °F 37% 29.95 in - NE 10.4 mph - N/A   Clear
6:50 PM 84.2 °F 82.8 °F 53.6 °F 35% 29.98 in - Variable 9.2 mph - N/A   Clear
7:20 PM 84.2 °F 82.8 °F 53.6 °F 35% 29.98 in - Variable 9.2 mph - N/A   Clear
7:50 PM 84.2 °F 82.8 °F 53.6 °F 35% 29.98 in - Variable 9.2 mph - N/A   Clear
8:20 PM 84.2 °F - 51.8 °F 33% 29.98 in - East 9.2 mph - N/A   Clear
8:50 PM 82.4 °F - 51.8 °F 35% 29.98 in - East 8.1 mph - N/A   Clear
9:00 PM 83 °F - 50 °F 22% 29.98 in 6 mi East 8.1 mph - -  
9:20 PM 82.4 °F - 51.8 °F 35% 29.98 in - East 8.1 mph - N/A   Clear
9:50 PM 80.6 °F 80.3 °F 53.6 °F 39% 29.98 in - East 8.1 mph - N/A   Clear
10:20 PM 80.6 °F 80.3 °F 53.6 °F 39% 29.98 in - Variable 6.9 mph - N/A   Clear
10:50 PM 78.8 °F - 53.6 °F 42% 29.98 in - ENE 5.8 mph - N/A   Clear
11:20 PM 78.8 °F - 53.6 °F 42% 29.98 in - ENE 6.9 mph - N/A   Clear
11:50 PM 77.0 °F - 55.4 °F 47% 29.98 in - ENE 5.8 mph - N/A   Clear